Powrót do katalogu

CZ-6A DEB

AktywnyPO
NORAD 60976·DEBRIS·🇨🇳 China

Wystrzelony Aug 6, 2024 z Taiyuan Satellite Launch Center

Loading…

Następne Przeloty (najbliższe 24 godziny)

TLE

ŚwieżeSource: Space-Track

Epoka: Sep 14, 2026, 09:41 UTC

1 60976U 24140MB  26257.40406950  .00011564  00000-0  17951-2 0  9991
2 60976  88.9445 255.0551 0040094  35.9599 324.4305 14.72492223109858

Śledź CZ-6A DEB w czasie rzeczywistym z AllMySat

Download on the App Store